Location: Unnamed
(23.5608°S, 46.6833°W)
Time: 01:44:22
(UTC-03:00)

BlueWalker 3 - Visible Passes

Search period start: 19 May 2024 00:00
Search period end: 29 May 2024 00:00
Orbit: 482 x 494 km, 53.2° (Epoch: 18 May)

Date Brightness Start Highest point End Pass type
(mag) Time Alt. Az. Time Alt. Az. Time Alt. Az.
19 May 4.1 04:24:51 24° ENE 04:24:51 24° ENE 04:26:36 10° ENE visible
19 May 4.1 06:00:04 10° WNW 06:00:48 10° WNW 06:01:33 10° NW visible
19 May 4.0 17:57:05 10° NNE 17:58:57 13° ENE 18:00:48 10° E visible
19 May 3.7 19:33:16 10° WNW 19:35:45 30° W 19:35:45 30° W visible
20 May 4.1 05:35:49 11° NW 05:35:49 11° NW 05:36:54 10° NW visible
20 May 2.9 19:07:56 10° WNW 19:11:32 39° SW 19:12:09 37° SSW visible
21 May 2.9 18:42:35 10° WNW 18:46:15 43° SW 18:48:27 21° SSE visible
22 May 2.8 18:17:13 10° NW 18:20:55 47° SW 18:24:38 10° SSE visible
23 May 2.6 17:51:51 10° NW 17:55:35 52° SW 17:59:22 10° SSE visible
